Weather History for CYZS - January, 2013

Change the Weather History Date:

Friday, January 25, 2013

  Actual Average Record
Temperature  
Mean Temperature -8 °F -  
Max Temperature -2 °F -14 °F 3 °F (2001)
Min Temperature -13 °F -29 °F -45 °F (1997)
Degree Days  
Heating Degree Days 72    
Moisture  
Dew Point -19 °F    
Average Humidity 59    
Maximum Humidity 70    
Minimum Humidity 44    
Precipitation  
Precipitation 0.00 in 0.01 in - ()
Sea Level Pressure  
Sea Level Pressure 29.70 in    
Wind  
Wind Speed 10 mph ()    
Max Wind Speed 18 mph    
Max Gust Speed -    
Visibility 15.0 miles    
Events Snow    
Averages and records for this station are not official NWS values.
T = Trace of Precipitation, MM = Missing Value Source: Averaged Metar Reports

Daily Weather History Graph

Daily Weather History Graph

Search for Another Location

Airport or City:

Trip Planner

Search our weather history database for the weather conditions in past years. The results will help you decide how hot, cold, wet, or windy it might be!

Date:

Astronomy

Jan. 25, 2013 Rise Set
Actual Time 9:33 AM EST 3:58 PM EST
Civil Twilight 8:33 AM EST 4:59 PM EST
Nautical Twilight 7:32 AM EST 6:00 PM EST
Astronomical Twilight 6:35 AM EST 6:57 PM EST
Moon 2:54 PM EST (1/25) 8:16 AM EST (1/25)
Length of Visible Light 8h 26m
Length of Day
6h 24m
Waxing Gibbous, 98% of the Moon is Illuminated
Jan 25
Waxing Gibbous
Jan 26
Full
Feb 3
Last Quarter
Feb 10
New
Feb 17
First Quarter

Hourly Weather History & Observations

Time (EST) Temp. Windchill Dew Point Humidity Pressure Visibility Wind Dir Wind Speed Gust Speed Precip Events Conditions
12:00 AM -9.4 °F -32.8 °F -20.2 °F 59% 29.68 in 15.0 mi NNW 17.3 mph - N/A Snow Low Drifting Snow
1:00 AM -10 °F - -20 °F 44% 29.67 in 15 mi NNW 11.5 mph - - Snow Snow
1:00 AM -9.4 °F -28.9 °F -20.2 °F 59% 29.67 in 15.0 mi NNW 11.5 mph - N/A   Clear
2:00 AM -7.6 °F -30.5 °F -18.4 °F 59% 29.67 in 15.0 mi NNW 17.3 mph - N/A Snow Low Drifting Snow
3:00 AM -9.4 °F -32.8 °F -18.4 °F 65% 29.68 in 15.0 mi NNW 17.3 mph - N/A Snow Low Drifting Snow
4:00 AM -5.8 °F -28.2 °F -18.4 °F 55% 29.68 in 15.0 mi NNW 17.3 mph - N/A Snow Low Drifting Snow
5:00 AM -7.6 °F -26.6 °F -18.4 °F 59% 29.69 in 15.0 mi North 11.5 mph - N/A   Clear
6:00 AM -9.4 °F -28.9 °F -20.2 °F 59% 29.69 in 15.0 mi North 11.5 mph - N/A   Clear
7:00 AM -10 °F - -19 °F 47% 29.70 in 15 mi Calm Calm - - Snow Snow
7:00 AM -9.4 °F - -20.2 °F 59% 29.70 in 15.0 mi Calm Calm - N/A   Clear
8:00 AM -13.0 °F -35.2 °F -23.8 °F 59% 29.69 in 15.0 mi NNW 13.8 mph - N/A   Clear
9:00 AM -11.2 °F -31.1 °F -20.2 °F 64% 29.68 in 15.0 mi NNW 11.5 mph - N/A   Partly Cloudy
10:00 AM -7.6 °F -30.5 °F -18.4 °F 59% 29.68 in 15.0 mi North 17.3 mph - N/A Snow Low Drifting Snow
11:00 AM -9.4 °F -26.8 °F -20.2 °F 59% 29.68 in 15.0 mi NNW 9.2 mph - N/A   Partly Cloudy
12:00 PM -5.8 °F -28.8 °F -16.6 °F 60% 29.67 in 15.0 mi North 18.4 mph - N/A Snow Low Drifting Snow
1:00 PM -5 °F - -15 °F 46% 29.68 in 15 mi North 15.0 mph - - Snow Snow
1:00 PM -4.0 °F -24.5 °F -14.8 °F 60% 29.68 in 15.0 mi North 15.0 mph - N/A Snow Low Drifting Snow
2:00 PM -5.8 °F -19.9 °F -14.8 °F 65% 29.69 in 15.0 mi North 6.9 mph - N/A   Partly Cloudy
3:00 PM -4.0 °F - -13.0 °F 65% 29.70 in 15.0 mi Calm Calm - N/A   Scattered Clouds
4:00 PM -4.0 °F - -16.6 °F 55% 29.72 in 15.0 mi Calm Calm - N/A   Partly Cloudy
5:00 PM -11.2 °F -24.8 °F -20.2 °F 64% 29.72 in 15.0 mi NNW 5.8 mph - N/A   Partly Cloudy
6:00 PM -11.2 °F - -20.2 °F 64% 29.73 in 15.0 mi Calm Calm - N/A   Partly Cloudy
7:00 PM -12 °F - -21 °F 48% 29.73 in 15 mi NNW 8.1 mph - - Snow Snow
7:00 PM -13.0 °F -30.0 °F -20.2 °F 70% 29.73 in 15.0 mi NNW 8.1 mph - N/A   Scattered Clouds
8:00 PM -13.0 °F -31.3 °F -22.0 °F 64% 29.73 in 15.0 mi NNW 9.2 mph - N/A   Scattered Clouds
9:00 PM -11.2 °F -27.8 °F -22.0 °F 59% 29.73 in 15.0 mi North 8.1 mph - N/A   Partly Cloudy
10:00 PM -9.4 °F -22.7 °F -20.2 °F 59% 29.73 in 15.0 mi North 5.8 mph - N/A   Partly Cloudy
11:00 PM -13.0 °F - -22.0 °F 64% 29.74 in 15.0 mi Calm Calm - N/A   Clear